User: anonymous   Login
Location: St. Malo Provincial Park
(49.3214°N, 96.9305°W)
Time: 15:58:01
(UTC-05:00)
Language:

Iridium 6 - Orbit

View from above orbital plane
View from above orbital plane
View from above satellite
View from above satellite

Ground track
Ground track

The orbit data is extracted from the following two-line orbital elements,

1 24794U 97020C   15116.49094042  .00000255  00000-0  84104-4 0  9993
2 24794 086.3925 286.0264 0002202 089.6757 270.4691 14.34218621941013
Epoch (UTC): 26 April 2015 11:46:57
Eccentricity: 0.0002202
inclination: 86.3925°
perigee height: 776 km
apogee height: 779 km
right ascension of ascending node: 286.0264°
argument of perigee: 89.6757°
revolutions per day: 14.34218621
mean anomaly at epoch: 270.4691°
orbit number at epoch: 94101

The dashed part of the orbit path shows where the satellite is in the earth's shadow,  

DLR